www.pogodaiklimat.ru

ПОГОДА в Nagpur

  • Прогноз погоды в Nagpur
  • Монитор погоды в Nagpur
  • Климат города

АРХИВ ПОГОДЫ в Nagpur

Время (UTC), дата Ветер
(напр.,м/с)
 
Видим.   Явления Облачность Т
(С)
Тd
(С)
f
(%)
Тe
(С)
Тes
(С)
Комфортность P
(гПа)
Po
(гПа)
Тmin
(С)
Tmax
(С)
R
(мм)
S
(см)
18 9.01 С 2 2000 м в посл. час дождь {морось} 6/4 600 м
[Sc Ac As]
+20.8 +18.2 85 +25 +25 комфорт 1010.9 1011.0 0.0
21 9.01 СВ 1 2000 м мгла 4/0
[Ac trans]
+19.1 +17.3 89 +22 +22 комфорт 1010.4 1010.0 0.0
00 10.01 С 1 2000 м мгла 4/0
[Ac trans]
+16.6 +16.3 98 +17 +17 1011.4 1011.0 0.0
03 10.01 С 2 1000 м дымка ясно +18.0 +16.3 90 +19 +21 1014.2 1014.0 +16.2 0.0
06 10.01 С 2 1000 м мгла ясно +22.8 +16.6 68 +27 +40 душно 1013.6 1014.0
09 10.01 штиль 0 2000 м мгла 3/0
[Ac trans]
+25.6 +16.6 58 +29 +38 душно 1010.5 1011.0
12 10.01 В 2 2000 м мгла 3/0
[Ac trans]
+23.6 +18.5 73 +28 +28 душно 1011.1 1011.0 +27.0
15 10.01 С 1 2000 м мгла ясно +19.0 +17.0 88 +22 +22 комфорт 1014.3 1014.0
18 10.01 СВ 1 1000 м дымка ясно +17.4 +15.7 90 +18 +18 1014.6 1015.0
21 10.01 С 2 2000 м мгла ясно +16.8 +15.4 91 +17 +17 1013.8 1014.0
00 11.01 С 2 2000 м мгла ясно +14.2 +12.7 91 +14 +14 1014.5 1015.0
03 11.01 С 2 2000 м мгла ясно +15.0 +10.5 74 +15 +18 1016.8 1017.0 +12.8
06 11.01 В 2 4000 м мгла ясно +21.6 +14.1 62 +24 +36 комфорт 1015.7 1016.0
09 11.01 С 2 4000 м мгла ясно +24.6 +13.3 49 +27 +34 жарко 1012.0 1012.0
12 11.01 С 1 4000 м мгла ясно +22.2 +11.9 52 +25 +25 комфорт 1011.7 1012.0 +25.8
15 11.01 штиль 0 2000 м мгла ясно +14.8 +11.9 83 +15 +15 1014.1 1014.0
18 11.01 С 3 2000 м мгла ясно +15.8 +9.2 65 +15 +15 1014.4 1014.0
21 11.01 С 1 2000 м мгла ясно +13.4 +8.9 74 +14 +14 1014.4 1014.0
00 12.01 С 2 2000 м мгла ясно +10.2 +8.1 87 +9 +9 1015.1 1015.0
03 12.01 С 2 2000 м мгла ясно +14.0 +8.0 67 +14 +16 1016.9 1017.0 +8.6
06 12.01 СВ 3 4000 м мгла ясно +20.0 +10.4 54 +22 +31 комфорт 1016.4 1016.0
09 12.01 С 2 4000 м мгла ясно +23.0 +11.2 47 +25 +34 комфорт 1012.3 1012.0
12 12.01 штиль 0 4000 м мгла ясно +21.4 +11.8 54 +23 +23 комфорт 1011.7 1012.0 +24.3
15 12.01 штиль 0 2000 м мгла ясно +13.0 +9.1 77 +13 +13 1014.5 1015.0
18 12.01 С 1 2000 м мгла ясно +11.2 +7.9 80 +11 +11 1014.8 1015.0
21 12.01 штиль 0 2000 м мгла ясно +8.8 +6.7 87 +8 +8 1014.9 1015.0
00 13.01 С 1 2000 м мгла ясно +8.4 +5.3 81 +8 +8 1015.1 1015.0
03 13.01 С 2 2000 м мгла ясно +13.4 +6.3 62 +13 +16 1017.3 1017.0 +7.2
06 13.01 СВ 2 4000 м мгла ясно +20.6 +9.4 49 +23 +34 комфорт 1016.2 1016.0
09 13.01 штиль 0 4000 м мгла ясно +24.0 +10.3 42 +25 +36 комфорт 1012.7 1013.0
12 13.01 ЮВ 2 2000 м мгла ясно +21.6 +11.6 53 +24 +24 комфорт 1012.3 1012.0 +25.0
15 13.01 штиль 0 2000 м мгла ясно +14.6 +6.8 59 +14 +14 1015.5 1016.0
18 13.01 С 2 2000 м мгла ясно +15.0 +4.2 48 +15 +15 1016.1 1016.0
21 13.01 С 2 2000 м мгла ясно +12.0 +2.3 51 +12 +12 1015.0 1015.0
00 14.01 С 1 2000 м мгла ясно +9.8 +3.4 64 +10 +10 1015.6 1016.0
03 14.01 В 2 2000 м мгла ясно +14.6 +1.3 40 +15 +18 1017.9 1018.0 +8.5
06 14.01 СВ 2 4000 м мгла ясно +21.2 +1.9 28 +21 +33 комфорт 1017.5 1018.0
09 14.01 Ю 1 4000 м мгла ясно +24.4 +5.0 29 +24 +33 комфорт 1014.1 1014.0
12 14.01 штиль 0 4000 м мгла ясно +23.5 +7.3 35 +24 +24 комфорт 1014.0 1014.0 +26.1
15 14.01 штиль 0 2000 м мгла ясно +15.2 +8.5 64 +15 +15 1017.1 1017.0
18 14.01 штиль 0 2000 м мгла ясно +13.0 +8.2 73 +13 +13 1017.9 1018.0
21 14.01 С 1 2000 м мгла ясно +12.0 +7.5 74 +12 +12 1017.7 1018.0
00 15.01 С 1 2000 м мгла ясно +10.8 +7.0 77 +11 +11 1017.8 1018.0
03 15.01 штиль 0 2000 м мгла ясно +15.6 +6.1 53 +16 +19 1019.1 1019.0 +10.3
06 15.01 В 1 2000 м мгла ясно +22.6 +6.1 34 +23 +37 комфорт 1017.8 1018.0
09 15.01 штиль 0 4000 м мгла ясно +26.6 +7.0 29 +26 +37 жарко 1014.3 1014.0
12 15.01 штиль 0 2000 м мгла ясно +24.0 +9.8 41 +25 +25 комфорт 1014.8 1015.0 +27.5
15 15.01 В 1 2000 м мгла ясно +17.0 +9.8 63 +18 +18 1016.8 1017.0
18 15.01 штиль 0 2000 м мгла ясно +14.6 +10.0 74 +14 +14 1016.9 1017.0
21 15.01 штиль 0 2000 м мгла 4/0
[Ac trans]
+13.2 +10.1 81 +13 +13 1015.9 1016.0
00 16.01 штиль 0 2000 м мгла ясно +12.2 +9.0 81 +12 +12 1016.5 1017.0
03 16.01 штиль 0 2000 м мгла ясно +15.4 +10.1 71 +15 +19 1018.4 1018.0 +10.9
06 16.01 ЮВ 2 2000 м мгла ясно +25.2 +9.6 37 +26 +38 жарко 1016.7 1017.0
09 16.01 В 2 4000 м мгла 5/0
[Ci fib]
+28.4 +6.6 25 +27 +35 жарко 1013.0 1013.0
12 16.01 В 1 4000 м мгла 5/0
[Ci fib]
+26.2 +10.6 38 +27 +27 жарко 1012.8 1013.0 +29.5
15 16.01 штиль 0 2000 м мгла 3/0
[Ci fib]
+18.4 +10.2 59 +19 +19 1015.8 1016.0

 

Местоположение метеостанции Nagpur (Maharashtra, Индия): широта 21.10 долгота 79.05 высота над уровнем моря 310 м.

В архиве по умолчанию представлена погода в Nagpur за последнюю неделю. Архивные данные за месяц целиком и за предыдущие месяцы, начиная с января 2011 года, Вы можете получить, выбрав интересующий диапазон дат из раскрывающегося списка и нажав кнопку "Ввод!".

Внимание! Время в таблицах - всемирное. Для получения местного времени необходимо прибавить поправку, которая в Nagpur равна 5.5 ч.

Ветер - указаны скорость ветра в м/с - средняя за 10 мин, порывы в срок и между сроками (в фигурных скобках) и направление, откуда дует ветер: С - северный, СВ - северо-восточный, В - восточный, ЮВ - юго-восточный, Ю - южный, ЮЗ - юго-западный, З - западный, СЗ - северо-западный.
Видимость - горизонтальная дальность видимости в метрах или километрах. При видимости от 1 до 10 км при отсутствии осадков обычно наблюдается дымка, при ухудшении видимости до 1 км и менее - туман. В сухую погоду видимость может ухудшаться дымом, пылью или мглою.
Явления - указаны атмосферные явления, наблюдавшиеся в срок или в последний час перед сроком; фигурными скобками обозначены явления, наблюдавшиеся между сроками (за 1-3 часа до срока); квадратными скобками обозначены град или гололедные отложения с указанием их диаметра в мм.
Облачность - указаны через наклонную черту общая и нижняя облачность в баллах и высота нижней границы облаков в метрах; квадратными скобками обозначены формы облаков: Ci - перистые, Cs - перисто-слоистые, Cc - перисто-кучевые, Ac - высококучевые, As - высокослоистые, Sc - слоисто-кучевые, Ns - слоисто-дождевые, Cu - кучевые, Cb - кучево-дождевые. Подробнее классификацию облаков см. в Атласе облаков (PDF).
T - Температура воздуха - температура, измеренная на высоте 2 м над землей.
Td - Температура точки росы - температура, при понижении до которой содержащийся в воздухе водяной пар достигнет насыщения.
f - Относительная влажность воздуха - влажноcть воздуха, измеренная на высоте 2 м над землей.
Te - Эффективная температура - температура, которую ощущает одетый по сезону человек в тени. Характеристика душности погоды. При расчете учитывается влияние влажности воздуха и скорости ветра на теплоощущения человека.
Tes - Эффективная температура на солнце - температура, которую ощущает человек, с поправкой на солнечный нагрев. Характеристика знойности погоды. Зависит от высоты солнца над горизонтом, облачности и скорости ветра. Ночью, в пасмурную погоду, а также при ветре 12 м/с и более поправка равна нулю.
P - Атмосферное давление - приведенное к уровню моря атмосферное давление.
Po - Атмосферное давление - измеренное на уровне метеостанции атмосферное давление.
Tmin - Минимальная температура - минимум температуры воздуха на высоте 2 м над землей.
Tmax - Максимальная температура - максимум температуры воздуха на высоте 2 м над землей.
R - Количество осадков - Количество выпавших осадков, мм. При наведении курсора мыши на число - период времени, за который выпало указанное количество осадков.
S - Снежный покров - Высота снежного покрова, см. При наведении курсора мыши на число - состояние снежного покрова и степень покрытия местности в баллах.